[[{"header":{"parameterUnit":"m.s-1","parameterCategory":1,"la1":30.2991,"la2":30.254,"lo1":-89.0895,"lo2":-89.0444,"dy":0.0017,"dx":0.0017,"nx":28,"ny":28,"refTime":"2025-04-16T09:00:00:Z","depth":0,"parameterNumber":2,"parameterNumberName":"U-component_of_WINDS"},"data":[0,0,0,0,0,0,0,0,0,0,0,0,0,0,0,0,0,0,0,0,0,0,0,0,0,0,0,0,0,0,0,0,0,0,0,0,0,0,0,0,0,0,0,0,0,0,0,0,0,0,0,0,0,0,0,0,0,0,-2.8493,-2.8494,0,-2.8583,-2.8584,-2.8585,-2.8571,-2.857,-2.8568,-2.8567,-2.8657,-2.8661,-2.8665,0,0,0,0,0,0,0,0,0,0,0,0,0,-2.8308,-2.8312,-2.8493,-2.8494,-2.8496,-2.8583,-2.8584,-2.8585,-2.8571,-2.8569,-2.8568,-2.8566,-2.8656,-2.866,-2.8665,0,0,0,0,0,0,0,0,0,0,0,0,0,-2.8392,-2.8313,-2.8493,-2.8499,-2.85,-2.8583,-2.8584,-2.8586,-2.8572,-2.8569,-2.8567,-2.8565,-2.8654,-2.866,-2.8666,-2.8747,0,0,-2.8683,-2.8686,0,0,0,0,0,0,0,0,-2.8388,-2.8399,-2.8497,-2.8499,-2.8501,-2.8564,-2.8552,-2.864,-2.8572,-2.8545,-2.8566,-2.8564,-2.8628,-2.8636,-2.8657,-2.8751,-2.8755,-2.8684,-2.8687,-2.869,-2.8691,0,0,0,0,0,0,0,-2.8382,-2.8395,-2.8529,-2.8498,-2.8501,-2.8497,-2.8506,-2.8569,-2.8598,-2.8547,-2.8546,-2.8557,-2.8628,-2.8652,-2.8659,-2.8757,-2.8684,-2.8689,-2.8692,-2.8695,-2.8922,-2.8924,0,0,0,0,0,0,-2.8374,-2.839,-2.8526,-2.8531,-2.8437,-2.8502,-2.8513,-2.8546,-2.8597,-2.8603,-2.8559,-2.8556,-2.8643,-2.8653,-2.8663,-2.8761,-2.869,-2.8695,-2.8698,-2.8919,-2.8922,-2.8925,0,0,0,0,0,0,-2.837,-2.8387,-2.8522,-2.8461,-2.8478,-2.8508,-2.8545,-2.8549,-2.8572,-2.8606,-2.8611,-2.8578,-2.8642,-2.8654,-2.8726,-2.8764,-2.8698,-2.8703,-2.8916,-2.892,-2.8924,-2.8958,0,0,0,0,0,0,-2.8365,-2.8385,-2.8417,-2.8462,-2.8481,-2.8585,-2.8547,-2.8552,-2.8582,-2.8579,-2.8625,-2.8631,-2.8641,-2.8718,-2.8732,-2.8771,-2.8707,-2.8913,-2.8918,-2.8922,-2.8954,-2.8963,-2.8971,0,0,0,0,0,-2.8359,-2.8423,-2.8419,-2.8435,-2.8521,-2.8587,-2.8598,-2.8609,-2.8585,-2.8617,-2.8639,-2.8629,-2.8758,-2.8725,-2.8741,-2.8782,-2.891,-2.8916,-2.8922,-2.895,-2.8961,-2.897,0,0,0,0,0,0,-2.8381,-2.8429,-2.8425,-2.8505,-2.8542,-2.8585,-2.8625,-2.862,-2.8665,-2.866,-2.8671,-2.8682,-2.8754,-2.8775,-2.8738,-2.8863,-2.8831,-2.884,-2.8847,-2.8857,-2.8866,-2.8858,-2.8712,0,0,0,0,0,-2.8396,-2.8446,-2.8485,-2.8552,-2.8571,-2.8595,-2.8624,-2.8629,-2.8668,-2.8683,-2.871,-2.8748,-2.8796,-2.8828,-2.8875,-2.8957,-2.8967,-2.8993,-2.9002,-2.9008,-2.9016,-2.906,-2.9072,-2.8944,-2.8944,-2.8944,0,0,-2.8426,-2.8458,-2.8489,-2.8557,-2.8587,-2.8638,-2.8608,-2.8663,-2.8701,-2.8691,-2.8761,-2.8782,-2.8825,-2.8902,-2.8937,-2.8922,-2.9053,-2.9016,-2.9021,-2.9025,-2.9067,-2.9079,-2.909,-2.8948,-2.8947,-2.8947,0,0,-2.8507,-2.8537,-2.8596,-2.8626,-2.8671,-2.8687,-2.8701,-2.8744,-2.8758,-2.8828,-2.8822,-2.8866,-2.895,-2.8981,-2.9007,-2.91,-2.9092,-2.9115,-2.9158,-2.9201,-2.9211,-2.922,-2.9252,-2.9264,-2.9122,-2.9123,-2.9123,0,-2.8539,-2.8616,-2.8627,-2.8683,-2.8713,-2.8707,-2.8767,-2.8795,-2.8853,-2.8874,-2.8856,-2.8961,-2.8989,-2.9073,-2.9096,-2.9118,-2.9133,-2.9109,-2.9209,-2.9218,-2.9226,-2.9257,-2.9269,-2.9125,-2.9125,-2.9124,-2.9124,0,-2.8652,-2.8706,-2.8748,-2.8804,-2.8839,-2.8896,-2.8916,-2.895,-2.8952,-2.8969,-2.904,-2.9074,-2.9127,-2.9148,-2.9151,-2.9232,-2.9221,-2.9206,-2.9173,-2.9241,-2.927,-2.9282,-2.9128,-2.9128,-2.9127,-2.9126,0,0,-2.8749,-2.8811,-2.8826,-2.8852,-2.8901,-2.8942,-2.8999,-2.9052,-2.908,-2.912,-2.9168,-2.9239,-2.9225,-2.9255,-2.9262,-2.93,-2.937,-2.928,-2.9281,-2.9294,-2.9461,-2.9471,-2.9484,-2.9365,-2.9368,-2.937,-2.9457,0,-2.8834,-2.8935,-2.8947,-2.9037,-2.9086,-2.9081,-2.9131,-2.9166,-2.9184,-2.9228,-2.9247,-2.9297,-2.9276,-2.9294,-2.9332,-2.9353,-2.9403,-2.9347,-2.9409,-2.9411,-2.9397,-2.95,-2.9511,-2.9591,-2.9468,-2.947,-2.9472,0,-2.8947,-2.899,-2.9085,-2.9127,-2.9148,-2.9192,-2.9241,-2.9283,-2.9323,-2.9333,-2.9367,-2.9368,-2.9427,-2.9393,-2.9473,-2.9434,-2.9461,-2.9475,-2.9478,-2.9484,-2.9444,-2.9507,-2.9617,-2.9629,-2.949,-2.9488,-2.9487,0,-2.9007,-2.9089,-2.9156,-2.9178,-2.9229,-2.926,-2.9283,-2.932,-2.9351,-2.9394,-2.9414,-2.9463,-2.9489,-2.9527,-2.9541,-2.9515,-2.962,-2.9587,-2.9629,-2.9629,-2.9651,-2.9649,-2.9766,-2.967,-2.9669,-2.9669,-2.9669,0,-2.91,-2.9158,-2.9184,-2.9225,-2.9289,-2.9303,-2.9366,-2.9387,-2.9421,-2.9465,-2.9465,-2.9507,-2.9524,-2.9568,-2.958,-2.9644,-2.9656,-2.9666,-2.9668,-2.9665,-2.9664,-2.9681,-2.9676,-2.9672,-2.9672,-2.9671,-2.9671,0,-2.9177,-2.9197,-2.927,-2.9313,-2.9324,-2.937,-2.9406,-2.9446,-2.9463,-2.952,-2.9534,-2.9561,-2.9614,-2.9632,-2.9696,-2.9703,-2.9777,-2.9775,-2.9764,-2.9764,-2.9805,-2.98,-2.9937,-2.9955,-2.9847,-2.9848,-2.9849,0,-2.9235,-2.9279,-2.9326,-2.9356,-2.938,-2.9429,-2.946,-2.9475,-2.9507,-2.9556,-2.9589,-2.9642,-2.9684,-2.9768,-2.9793,-2.9842,-2.984,-2.9885,-2.9847,-2.9843,-2.984,-2.9836,-2.984,-2.9891,-2.9892,-2.9893,-2.9894,0,-2.9334,-2.9342,-2.9387,-2.9436,-2.9474,-2.9513,-2.9551,-2.9575,-2.9595,-2.9632,-2.9686,-2.9719,-2.9784,-2.9835,-2.9885,-2.9908,-2.9904,-2.9906,-2.9918,-2.9915,-2.9906,-2.991,-2.9782,-2.9902,-2.9901,-2.9901,-2.99,-2.99,-2.9403,-2.9442,-2.9481,-2.9532,-2.9562,-2.9597,-2.9636,-2.9658,-2.9704,-2.9758,-2.9764,-2.9821,-2.986,-2.9926,-2.9951,-2.9996,-2.9984,-3.0002,-3.0006,-3.001,-3.0012,-2.99,-3.0005,-3.0005,-3.0005,-3.0005,-3.0005,0,-2.9502,-2.9527,-2.9573,-2.9626,-2.9665,-2.9659,-2.9701,-2.9734,-2.9785,-2.9821,-2.9863,-2.9924,-2.9974,-3.0004,-3.0054,-3.0084,-3.0083,-3.0096,-3.0094,-3.0099,-3.0021,-3.0005,-3.0096,-3.0096,-3.0096,-3.0096,-3.0096,-3.0096,-2.9558,-2.9623,-2.9635,-2.9715,-2.974,-2.9796,-2.982,-2.9853,-2.9882,-2.995,-2.9992,-3.0011,-3.0044,-3.0097,-3.0142,-3.0149,-3.0167,-3.0181,-3.0187,-3.0114,-3.0104,-3.0095,-3.008,-3.0185,-3.0185,-3.0261,-3.0262,-3.0262]},{"header":{"parameterUnit":"m.s-1","parameterCategory":1,"la1":30.2991,"la2":30.254,"lo1":-89.0895,"lo2":-89.0444,"dy":0.0017,"dx":0.0017,"nx":28,"ny":28,"refTime":"2025-04-16T09:00:00:Z","depth":0,"parameterNumber":3,"parameterNumberName":"V-component_of_WINDS"},"data":[0,0,0,0,0,0,0,0,0,0,0,0,0,0,0,0,0,0,0,0,0,0,0,0,0,0,0,0,0,0,0,0,0,0,0,0,0,0,0,0,0,0,0,0,0,0,0,0,0,0,0,0,0,0,0,0,0,0,1.6219,1.6219,0,1.6181,1.6181,1.6181,1.6106,1.6105,1.6103,1.6102,1.6065,1.6065,1.6065,0,0,0,0,0,0,0,0,0,0,0,0,0,1.6228,1.6228,1.6219,1.6219,1.6218,1.6181,1.6181,1.618,1.6107,1.6105,1.6103,1.6101,1.6064,1.6065,1.6065,0,0,0,0,0,0,0,0,0,0,0,0,0,1.6211,1.6228,1.6219,1.6177,1.6173,1.6182,1.6181,1.618,1.6107,1.6105,1.6103,1.6101,1.6064,1.6065,1.6065,1.6113,0,0,1.6067,1.6067,0,0,0,0,0,0,0,0,1.6212,1.621,1.6184,1.618,1.6175,1.6146,1.617,1.6158,1.6108,1.6132,1.6102,1.6099,1.6094,1.6092,1.6089,1.6111,1.6109,1.6067,1.6067,1.6068,1.6068,0,0,0,0,0,0,0,1.6213,1.6212,1.6204,1.6183,1.6178,1.616,1.6155,1.6167,1.6126,1.613,1.6124,1.6121,1.6091,1.6089,1.6088,1.6109,1.6067,1.6068,1.6068,1.6068,1.6166,1.6168,0,0,0,0,0,0,1.622,1.6213,1.6205,1.6203,1.6188,1.6162,1.6156,1.6158,1.6125,1.6118,1.6123,1.6117,1.6089,1.6087,1.6086,1.6138,1.6068,1.6068,1.6068,1.6163,1.6166,1.6169,0,0,0,0,0,0,1.6221,1.622,1.6207,1.6207,1.6203,1.6164,1.6166,1.6158,1.6156,1.612,1.6112,1.6128,1.6087,1.6086,1.6106,1.6136,1.6068,1.6069,1.6161,1.6164,1.6167,1.6243,0,0,0,0,0,0,1.6221,1.6221,1.6238,1.6207,1.6204,1.6228,1.6168,1.6159,1.6157,1.615,1.6123,1.6117,1.6085,1.6106,1.6107,1.6135,1.6069,1.6158,1.6162,1.6166,1.6238,1.6249,1.6258,0,0,0,0,0,1.6222,1.6262,1.6239,1.6239,1.6225,1.6229,1.6227,1.619,1.616,1.6177,1.6154,1.6118,1.6133,1.6109,1.6109,1.6138,1.6156,1.6161,1.6166,1.6233,1.6247,1.6258,0,0,0,0,0,0,1.6297,1.6257,1.6232,1.6263,1.625,1.6217,1.6237,1.6206,1.6202,1.6195,1.615,1.6144,1.6171,1.6157,1.613,1.6182,1.6139,1.6144,1.619,1.6202,1.6212,1.6214,1.607,0,0,0,0,0,1.6318,1.6324,1.6289,1.632,1.6314,1.6277,1.6278,1.6251,1.6236,1.623,1.6208,1.6195,1.6197,1.6199,1.6199,1.6236,1.6228,1.6256,1.6267,1.6275,1.628,1.6297,1.6309,1.6185,1.6185,1.6185,0,0,1.6359,1.6338,1.6345,1.6334,1.6321,1.6329,1.6273,1.6284,1.629,1.6232,1.6249,1.6233,1.6216,1.6245,1.6256,1.6234,1.6312,1.6281,1.6289,1.6288,1.6304,1.6315,1.6326,1.6189,1.6188,1.6188,0,0,1.6439,1.6425,1.6448,1.6436,1.6416,1.6391,1.6397,1.6369,1.6355,1.6372,1.6328,1.6335,1.6339,1.6328,1.6323,1.6399,1.6365,1.64,1.6452,1.647,1.6479,1.6488,1.6513,1.6523,1.6405,1.6405,1.6406,0,1.6493,1.6503,1.6464,1.6477,1.6473,1.6421,1.6444,1.6434,1.6417,1.6415,1.639,1.6393,1.6378,1.6403,1.6422,1.642,1.6424,1.6402,1.6481,1.6489,1.6496,1.652,1.653,1.641,1.6409,1.6409,1.6408,0,1.6571,1.6579,1.66,1.6583,1.6581,1.66,1.6563,1.6566,1.654,1.6517,1.6535,1.6515,1.6509,1.6513,1.6487,1.6534,1.652,1.649,1.6445,1.6513,1.6534,1.6543,1.6416,1.6414,1.6413,1.6412,0,0,1.6696,1.6657,1.6665,1.6656,1.6631,1.6636,1.6652,1.6646,1.6649,1.6639,1.6651,1.6656,1.6626,1.6621,1.6593,1.6609,1.6668,1.6575,1.6574,1.6592,1.6717,1.6739,1.6751,1.6646,1.6648,1.6649,1.6718,0,1.6769,1.6793,1.6758,1.679,1.6796,1.6747,1.6761,1.6747,1.6727,1.6729,1.6707,1.671,1.6672,1.6668,1.6682,1.6658,1.6693,1.6653,1.6656,1.6656,1.666,1.6762,1.6786,1.6852,1.6726,1.6728,1.6729,0,1.6857,1.685,1.6883,1.6855,1.6856,1.6869,1.686,1.6863,1.6846,1.6831,1.6824,1.6792,1.6805,1.6763,1.6781,1.6755,1.6754,1.6743,1.6744,1.6742,1.6696,1.6761,1.6872,1.6881,1.6742,1.6741,1.674,0,1.6942,1.6942,1.6961,1.6955,1.6924,1.6934,1.6921,1.6902,1.69,1.6893,1.6891,1.6886,1.6883,1.6879,1.6846,1.6819,1.6867,1.6822,1.6853,1.6854,1.6864,1.6863,1.6975,1.6867,1.6867,1.6867,1.6866,0,1.7026,1.7048,1.6999,1.701,1.7033,1.6993,1.7016,1.6999,1.6982,1.6989,1.6947,1.6955,1.6911,1.6914,1.6888,1.6906,1.6905,1.6892,1.6884,1.6895,1.6896,1.6892,1.6886,1.6869,1.6869,1.6868,1.6868,0,1.7125,1.7093,1.7111,1.7079,1.7072,1.709,1.7063,1.7073,1.705,1.7059,1.7059,1.7024,1.7025,1.6991,1.6986,1.6969,1.6997,1.6982,1.7003,1.6997,1.7029,1.7026,1.714,1.7153,1.7039,1.704,1.7041,0,1.718,1.7195,1.7166,1.7167,1.7157,1.716,1.7158,1.7119,1.7119,1.7101,1.7112,1.711,1.7106,1.711,1.7083,1.7079,1.7063,1.7103,1.7062,1.7071,1.7061,1.706,1.7061,1.7111,1.7113,1.7114,1.7115,0,1.728,1.7263,1.7262,1.7255,1.7253,1.7246,1.7236,1.724,1.7197,1.7199,1.72,1.7197,1.7191,1.7189,1.7179,1.7166,1.7133,1.7129,1.7135,1.7145,1.7155,1.7148,1.7024,1.7126,1.7125,1.7124,1.7123,1.7123,1.7357,1.7368,1.7349,1.7348,1.7337,1.7328,1.7335,1.7313,1.7313,1.7305,1.7282,1.7286,1.7269,1.7252,1.7242,1.7245,1.7224,1.7234,1.7236,1.7239,1.7244,1.7156,1.7243,1.7243,1.7242,1.7242,1.7242,0,1.7454,1.7439,1.7439,1.7426,1.7425,1.7395,1.7382,1.7384,1.7388,1.7374,1.7371,1.7371,1.7369,1.7343,1.7337,1.7344,1.7329,1.7344,1.7342,1.7339,1.7264,1.7258,1.7356,1.7356,1.7356,1.7356,1.7356,1.7356,1.7504,1.752,1.7501,1.7511,1.7496,1.75,1.7495,1.7487,1.7475,1.7477,1.7475,1.7458,1.7439,1.7431,1.7428,1.742,1.7419,1.7439,1.7426,1.7356,1.7345,1.7334,1.7328,1.7439,1.744,1.7501,1.7501,1.7502]}]]